NOZ1AB ESSA-EVRA

Flight info

Callsign NOZ1AB
Flight time 0h 50m
Altitude 29000
Route BABAP P156 NEKLA DCT RUDNI DCT LAPSA
Aircraft B738/M-SDE2E3FGHIRWXY/LB1

Departure

Time 2026-05-06 21:40
Airport Stockholm-Arlanda Airport (ESSA)

Arrival

Time 2026-05-06 22:31
Airport Riga International Airport (EVRA)
Time Latitude Longitude Altitude Speed Heading
2026-05-06 20:59 59.65242 17.92996 137 ft 0 kts 70°
2026-05-06 21:28 59.65241 17.92990 137 ft 2 kts 70°
2026-05-06 21:29 59.65238 17.92976 137 ft 1 kts 70°
2026-05-06 21:29 59.65235 17.92962 137 ft 2 kts 75°
2026-05-06 21:29 59.65233 17.92941 137 ft 2 kts 83°
2026-05-06 21:29 59.65232 17.92923 137 ft 2 kts 88°
2026-05-06 21:30 59.65232 17.92901 137 ft 2 kts 91°
2026-05-06 21:30 59.65232 17.92878 137 ft 2 kts 92°
2026-05-06 21:30 59.65233 17.92856 137 ft 2 kts 102°
2026-05-06 21:30 59.65235 17.92834 137 ft 2 kts 101°
2026-05-06 21:31 59.65237 17.92812 137 ft 1 kts 111°
2026-05-06 21:31 59.65241 17.92791 137 ft 2 kts 102°
2026-05-06 21:31 59.65243 17.92768 137 ft 2 kts 105°
2026-05-06 21:31 59.65243 17.92763 137 ft 0 kts 110°
2026-05-06 21:35 59.65243 17.92764 137 ft 1 kts 110°
2026-05-06 21:35 59.65250 17.92785 137 ft 3 kts 36°
2026-05-06 21:35 59.65284 17.92768 137 ft 8 kts 337°
2026-05-06 21:36 59.65350 17.92705 137 ft 13 kts 333°
2026-05-06 21:36 59.65435 17.92620 137 ft 14 kts 333°
2026-05-06 21:36 59.65519 17.92538 137 ft 13 kts 336°
2026-05-06 21:36 59.65605 17.92489 137 ft 13 kts 345°
2026-05-06 21:37 59.65696 17.92443 137 ft 15 kts 346°
2026-05-06 21:37 59.65803 17.92432 137 ft 16 kts 10°
2026-05-06 21:37 59.65935 17.92480 137 ft 23 kts 10°
2026-05-06 21:37 59.66107 17.92543 137 ft 27 kts 10°
2026-05-06 21:38 59.66287 17.92608 137 ft 25 kts 11°
2026-05-06 21:38 59.66445 17.92661 137 ft 17 kts 358°
2026-05-06 21:38 59.66535 17.92603 137 ft 13 kts 339°
2026-05-06 21:38 59.66608 17.92537 138 ft 10 kts 315°
2026-05-06 21:39 59.66607 17.92411 141 ft 10 kts 238°
2026-05-06 21:39 59.66549 17.92351 141 ft 10 kts 194°
2026-05-06 21:39 59.66454 17.92316 141 ft 21 kts 191°
2026-05-06 21:39 59.66072 17.92175 145 ft 92 kts 191°
2026-05-06 21:40 59.65220 17.91868 144 ft 154 kts 190°
2026-05-06 21:40 59.64060 17.91437 591 ft 169 kts 191°
2026-05-06 21:40 59.62977 17.91004 1716 ft 155 kts 189°
2026-05-06 21:40 59.61878 17.90702 2331 ft 167 kts 183°
2026-05-06 21:41 59.60659 17.90646 2888 ft 182 kts 180°
2026-05-06 21:41 59.59335 17.90567 3432 ft 195 kts 182°
2026-05-06 21:41 59.57931 17.90384 3870 ft 210 kts 185°
2026-05-06 21:41 59.56457 17.90625 4389 ft 219 kts 153°
2026-05-06 21:42 59.55333 17.92567 5085 ft 221 kts 130°
2026-05-06 21:42 59.54332 17.94905 5786 ft 226 kts 123°
2026-05-06 21:42 59.53833 17.97837 6433 ft 230 kts 90°
2026-05-06 21:42 59.54221 18.00935 6849 ft 246 kts 57°
2026-05-06 21:43 59.55419 18.03546 7147 ft 267 kts 41°
2026-05-06 21:43 59.56839 18.05958 7710 ft 277 kts 39°
2026-05-06 21:43 59.58316 18.08461 8445 ft 281 kts 40°
2026-05-06 21:43 59.59797 18.11028 9205 ft 285 kts 40°
2026-05-06 21:44 59.61237 18.13785 9930 ft 292 kts 54°
2026-05-06 21:44 59.61990 18.17563 10353 ft 309 kts 84°
2026-05-06 21:44 59.61709 18.21874 10536 ft 329 kts 111°
2026-05-06 21:44 59.60607 18.25988 10734 ft 348 kts 126°
2026-05-06 21:45 59.59109 18.29828 11216 ft 357 kts 131°
2026-05-06 21:45 59.57498 18.33611 11888 ft 361 kts 132°
2026-05-06 21:45 59.55874 18.37411 12616 ft 364 kts 132°
2026-05-06 21:45 59.54251 18.41272 13316 ft 369 kts 131°
2026-05-06 21:46 59.52637 18.45177 14010 ft 374 kts 131°
2026-05-06 21:46 59.51002 18.49178 14674 ft 378 kts 131°
2026-05-06 21:46 59.49347 18.53248 15368 ft 382 kts 131°
2026-05-06 21:46 59.47681 18.57352 16039 ft 386 kts 132°
2026-05-06 21:47 59.45997 18.61495 16700 ft 391 kts 132°
2026-05-06 21:47 59.44283 18.65695 17344 ft 395 kts 132°
2026-05-06 21:47 59.42501 18.69837 17979 ft 398 kts 138°
2026-05-06 21:47 59.40417 18.73391 18567 ft 397 kts 149°
2026-05-06 21:48 59.38124 18.76460 19163 ft 398 kts 151°
2026-05-06 21:48 59.35842 18.79433 19755 ft 400 kts 152°
2026-05-06 21:48 59.33511 18.82461 20329 ft 403 kts 152°
2026-05-06 21:48 59.31161 18.85529 20898 ft 407 kts 152°
2026-05-06 21:49 59.28799 18.88631 21472 ft 409 kts 152°
2026-05-06 21:49 59.26423 18.91761 22033 ft 412 kts 152°
2026-05-06 21:49 59.24040 18.94906 22594 ft 415 kts 152°
2026-05-06 21:49 59.21641 18.98071 23120 ft 417 kts 152°
2026-05-06 21:50 59.19226 19.01253 23649 ft 420 kts 152°
2026-05-06 21:50 59.16823 19.04415 24061 ft 422 kts 152°
2026-05-06 21:50 59.14381 19.07623 24483 ft 424 kts 153°
2026-05-06 21:50 59.11921 19.10848 24891 ft 426 kts 153°
2026-05-06 21:51 59.09454 19.14077 25302 ft 428 kts 153°
2026-05-06 21:51 59.06972 19.17321 25716 ft 430 kts 153°
2026-05-06 21:51 59.04481 19.20570 26149 ft 431 kts 153°
2026-05-06 21:51 59.01988 19.23813 26573 ft 432 kts 153°
2026-05-06 21:52 58.99564 19.27310 27002 ft 439 kts 146°
2026-05-06 21:52 58.97408 19.31488 27395 ft 446 kts 140°
2026-05-06 21:52 58.95337 19.35868 27791 ft 448 kts 139°
2026-05-06 21:52 58.93249 19.40358 28189 ft 449 kts 139°
2026-05-06 21:53 58.91149 19.44870 28526 ft 452 kts 139°
2026-05-06 21:53 58.89029 19.49391 28794 ft 455 kts 139°
2026-05-06 21:53 58.86885 19.53927 29038 ft 459 kts 139°
2026-05-06 21:53 58.84702 19.58511 29019 ft 466 kts 139°
2026-05-06 21:54 58.80245 19.67801 29031 ft 477 kts 139°
2026-05-06 21:54 58.75710 19.77207 29027 ft 486 kts 139°
2026-05-06 21:55 58.71081 19.86778 29013 ft 488 kts 139°
2026-05-06 21:55 58.66448 19.96323 29015 ft 487 kts 139°
2026-05-06 21:56 58.61818 20.05815 29013 ft 486 kts 139°
2026-05-06 21:56 58.57189 20.15262 29014 ft 485 kts 138°
2026-05-06 21:57 58.52563 20.24661 29014 ft 484 kts 138°
2026-05-06 21:57 58.47937 20.34024 29015 ft 483 kts 138°
2026-05-06 21:58 58.43345 20.43278 29011 ft 482 kts 138°
2026-05-06 21:58 58.38716 20.52572 29006 ft 481 kts 138°
2026-05-06 21:59 58.34100 20.61799 29007 ft 481 kts 138°
2026-05-06 21:59 58.29505 20.70948 29005 ft 481 kts 138°
2026-05-06 22:00 58.24873 20.80133 29005 ft 481 kts 138°
2026-05-06 22:00 58.20238 20.89287 29007 ft 481 kts 138°
2026-05-06 22:01 58.15590 20.98431 29000 ft 481 kts 138°
2026-05-06 22:01 58.10934 21.07554 28999 ft 481 kts 138°
2026-05-06 22:02 58.06306 21.16587 28990 ft 481 kts 138°
2026-05-06 22:02 58.01635 21.25668 28992 ft 482 kts 138°
2026-05-06 22:03 57.97040 21.34578 28974 ft 455 kts 138°
2026-05-06 22:03 57.94878 21.38769 28968 ft 438 kts 139°
2026-05-06 22:03 57.92758 21.42859 28988 ft 435 kts 139°
2026-05-06 22:04 57.90638 21.46928 28657 ft 436 kts 139°
2026-05-06 22:04 57.88535 21.50960 28227 ft 429 kts 139°
2026-05-06 22:04 57.86455 21.54943 27795 ft 423 kts 139°
2026-05-06 22:04 57.84403 21.58868 27317 ft 419 kts 139°
2026-05-06 22:05 57.82366 21.62757 26847 ft 415 kts 139°
2026-05-06 22:05 57.80355 21.66590 26371 ft 411 kts 139°
2026-05-06 22:05 57.78351 21.70403 25898 ft 408 kts 139°
2026-05-06 22:05 57.76367 21.74173 25445 ft 405 kts 139°
2026-05-06 22:06 57.74419 21.77869 24995 ft 402 kts 139°
2026-05-06 22:06 57.72461 21.81577 24544 ft 399 kts 139°
2026-05-06 22:06 57.70511 21.85264 24092 ft 397 kts 139°
2026-05-06 22:06 57.68575 21.88918 23648 ft 394 kts 139°
2026-05-06 22:07 57.66649 21.92549 23128 ft 392 kts 139°
2026-05-06 22:07 57.64729 21.96163 22633 ft 390 kts 139°
2026-05-06 22:07 57.62827 21.99738 22188 ft 386 kts 139°
2026-05-06 22:07 57.60938 22.03283 21727 ft 383 kts 139°
2026-05-06 22:08 57.59695 22.05612 21438 ft 381 kts 140°
2026-05-06 22:08 57.57830 22.09104 20994 ft 378 kts 140°
2026-05-06 22:08 57.55980 22.12560 20556 ft 375 kts 140°
2026-05-06 22:08 57.54141 22.15990 20123 ft 373 kts 140°
2026-05-06 22:09 57.51721 22.20498 19549 ft 370 kts 140°
2026-05-06 22:09 57.50483 22.22799 19258 ft 369 kts 140°
2026-05-06 22:09 57.48695 22.26120 18841 ft 367 kts 140°
2026-05-06 22:09 57.46888 22.29472 18415 ft 366 kts 140°
2026-05-06 22:10 57.45086 22.32811 17950 ft 365 kts 140°
2026-05-06 22:10 57.43285 22.36141 17481 ft 364 kts 140°
2026-05-06 22:10 57.41505 22.39448 17034 ft 363 kts 138°
2026-05-06 22:10 57.39921 22.43126 16609 ft 365 kts 127°
2026-05-06 22:11 57.38655 22.47212 16182 ft 365 kts 123°
2026-05-06 22:11 57.37444 22.51336 15759 ft 363 kts 123°
2026-05-06 22:11 57.36242 22.55369 15343 ft 361 kts 123°
2026-05-06 22:11 57.35015 22.59414 14921 ft 359 kts 123°
2026-05-06 22:12 57.33698 22.63296 14649 ft 348 kts 134°
2026-05-06 22:12 57.31910 22.66174 14247 ft 338 kts 150°
2026-05-06 22:12 57.29977 22.68618 13860 ft 336 kts 151°
2026-05-06 22:12 57.28036 22.71031 13414 ft 335 kts 150°
2026-05-06 22:13 57.26113 22.73430 12982 ft 334 kts 150°
2026-05-06 22:13 57.24200 22.75835 12568 ft 332 kts 150°
2026-05-06 22:13 57.22296 22.78240 12155 ft 330 kts 150°
2026-05-06 22:13 57.20409 22.80632 11756 ft 328 kts 149°
2026-05-06 22:14 57.18550 22.82991 11358 ft 327 kts 149°
2026-05-06 22:14 57.16681 22.85356 10958 ft 325 kts 149°
2026-05-06 22:14 57.14816 22.87716 10558 ft 324 kts 149°
2026-05-06 22:14 57.12977 22.90040 10401 ft 315 kts 149°
2026-05-06 22:15 57.11197 22.92291 10256 ft 306 kts 149°
2026-05-06 22:15 57.09468 22.94473 10144 ft 297 kts 149°
2026-05-06 22:15 57.07786 22.96593 10019 ft 289 kts 150°
2026-05-06 22:15 57.06152 22.98650 9943 ft 279 kts 150°
2026-05-06 22:16 57.04546 23.00666 9565 ft 281 kts 149°
2026-05-06 22:16 57.02928 23.02694 9256 ft 279 kts 148°
2026-05-06 22:16 57.01591 23.05184 8917 ft 280 kts 123°
2026-05-06 22:16 57.00931 23.08546 8647 ft 284 kts 101°
2026-05-06 22:17 57.00712 23.12141 8356 ft 283 kts 97°
2026-05-06 22:17 57.00540 23.15742 8065 ft 283 kts 97°
2026-05-06 22:17 57.00366 23.19328 7767 ft 280 kts 97°
2026-05-06 22:17 57.00184 23.22859 7483 ft 277 kts 97°
2026-05-06 22:18 56.99993 23.26377 7205 ft 275 kts 97°
2026-05-06 22:18 56.99801 23.29825 6957 ft 268 kts 97°
2026-05-06 22:18 56.99615 23.33146 6836 ft 256 kts 98°
2026-05-06 22:18 56.99108 23.36199 6617 ft 250 kts 124°
2026-05-06 22:19 56.98103 23.38774 6407 ft 247 kts 128°
2026-05-06 22:19 56.97086 23.41281 6138 ft 248 kts 128°
2026-05-06 22:19 56.96057 23.43817 5867 ft 248 kts 127°
2026-05-06 22:19 56.95038 23.46333 5603 ft 248 kts 127°
2026-05-06 22:20 56.94016 23.48862 5349 ft 246 kts 126°
2026-05-06 22:20 56.93012 23.51347 5096 ft 239 kts 126°
2026-05-06 22:20 56.92035 23.53767 4923 ft 234 kts 126°
2026-05-06 22:20 56.91066 23.56167 4684 ft 234 kts 126°
2026-05-06 22:21 56.90102 23.58556 4424 ft 233 kts 125°
2026-05-06 22:21 56.89152 23.60906 4169 ft 232 kts 125°
2026-05-06 22:21 56.88191 23.63283 3942 ft 232 kts 125°
2026-05-06 22:21 56.87232 23.65656 3682 ft 232 kts 125°
2026-05-06 22:22 56.86273 23.68022 3437 ft 232 kts 124°
2026-05-06 22:22 56.85318 23.70374 3286 ft 227 kts 124°
2026-05-06 22:22 56.84389 23.72659 3171 ft 221 kts 124°
2026-05-06 22:22 56.83484 23.74883 3061 ft 214 kts 124°
2026-05-06 22:23 56.82379 23.76616 2959 ft 211 kts 156°
2026-05-06 22:23 56.80972 23.77034 2974 ft 203 kts 178°
2026-05-06 22:23 56.79572 23.76849 2944 ft 202 kts 182°
2026-05-06 22:23 56.78164 23.76600 2902 ft 203 kts 182°
2026-05-06 22:24 56.76775 23.76359 2867 ft 203 kts 182°
2026-05-06 22:24 56.75368 23.76122 2814 ft 202 kts 182°
2026-05-06 22:24 56.73991 23.76269 2727 ft 196 kts 152°
2026-05-06 22:24 56.73017 23.77833 2744 ft 186 kts 115°
2026-05-06 22:25 56.72651 23.80071 2723 ft 185 kts 95°
2026-05-06 22:25 56.72524 23.82416 2648 ft 187 kts 92°
2026-05-06 22:25 56.72416 23.84765 2547 ft 184 kts 92°
2026-05-06 22:25 56.72309 23.87060 2515 ft 180 kts 92°
2026-05-06 22:26 56.72206 23.89330 2524 ft 180 kts 89°
2026-05-06 22:26 56.72467 23.91512 2536 ft 181 kts 62°
2026-05-06 22:26 56.73323 23.93161 2508 ft 184 kts 26°
2026-05-06 22:26 56.74577 23.93698 2524 ft 186 kts 14°
2026-05-06 22:27 56.75848 23.94197 2522 ft 186 kts 14°
2026-05-06 22:27 56.77086 23.94552 2506 ft 180 kts 10°
2026-05-06 22:27 56.78309 23.94790 2499 ft 174 kts
2026-05-06 22:27 56.79500 23.94991 2340 ft 169 kts
2026-05-06 22:28 56.80629 23.95177 2126 ft 156 kts
2026-05-06 22:28 56.81645 23.95344 1908 ft 142 kts
2026-05-06 22:28 56.82591 23.95501 1741 ft 136 kts
2026-05-06 22:28 56.83526 23.95657 1538 ft 134 kts
2026-05-06 22:29 56.84428 23.95807 1352 ft 130 kts
2026-05-06 22:29 56.85330 23.95956 1175 ft 131 kts
2026-05-06 22:29 56.86241 23.96108 989 ft 132 kts
2026-05-06 22:29 56.87162 23.96254 796 ft 134 kts
2026-05-06 22:30 56.88092 23.96423 558 ft 135 kts
2026-05-06 22:30 56.89019 23.96561 432 ft 133 kts
2026-05-06 22:30 56.89960 23.96719 220 ft 136 kts
2026-05-06 22:30 56.90901 23.96875 46 ft 134 kts
2026-05-06 22:31 56.91714 23.97013 33 ft 96 kts
2026-05-06 22:31 56.92201 23.97094 37 ft 30 kts
2026-05-06 22:31 56.92397 23.97179 36 ft 28 kts 26°
2026-05-06 22:31 56.92544 23.97357 34 ft 8 kts 36°
2026-05-06 22:32 56.92589 23.97415 34 ft 8 kts 35°
2026-05-06 22:32 56.92615 23.97497 32 ft 8 kts 83°
2026-05-06 22:32 56.92580 23.97545 34 ft 7 kts 174°
2026-05-06 22:32 56.92531 23.97541 34 ft 7 kts 185°
2026-05-06 22:33 56.92483 23.97534 34 ft 7 kts 185°
2026-05-06 22:33 56.92436 23.97526 34 ft 7 kts 185°
2026-05-06 22:33 56.92391 23.97515 34 ft 7 kts 187°
2026-05-06 22:33 56.92346 23.97502 34 ft 6 kts 189°
2026-05-06 22:34 56.92301 23.97490 34 ft 7 kts 187°
2026-05-06 22:34 56.92247 23.97481 34 ft 9 kts 183°
2026-05-06 22:34 56.92185 23.97474 34 ft 7 kts 184°
2026-05-06 22:34 56.92153 23.97478 34 ft 4 kts 152°
2026-05-06 22:35 56.92141 23.97529 34 ft 5 kts 99°
2026-05-06 22:35 56.92136 23.97590 32 ft 5 kts 97°
2026-05-06 22:35 56.92132 23.97660 34 ft 3 kts 95°
2026-05-06 22:35 56.92130 23.97701 34 ft 3 kts 95°
2026-05-06 22:36 56.92142 23.97734 33 ft 3 kts 32°
2026-05-06 22:36 56.92165 23.97743 34 ft 3 kts
2026-05-06 22:36 56.92184 23.97746 34 ft 1 kts
2026-05-06 22:36 56.92190 23.97747 34 ft 0 kts